カタログに戻る

STARLINK-33616

運用中通信VLEO
NORAD 63385·PAYLOAD·🇺🇸 United States

打ち上げ Mar 26, 2025 から Vandenberg Space Force Base

Loading…

次のパス (今後24時間)

TLE

最新Source: CelesTrak SupGP

元期: Sep 14, 2026, 20:56 UTC

1 63385C 25063Y   26257.87270833  .00047567  00000+0  14056-2 0  2574
2 63385  53.1564 261.9753 0001273  88.6801  74.8872 15.34361348    13

AllMySatでSTARLINK-33616をリアルタイム追跡

Download on the App Store